Tracking 27423 objects as of 8-Jun-2023
HD Live streaming from Space Station
objects crossing your sky now

STARLINK-1096

Track STARLINK-1096 now!
10-day predictions
STARLINK-1096 is classified as:


NORAD ID: 44942
Int'l Code: 2020-001AE
Perigee: 508.8 km
Apogee: 511.2 km
Inclination: 53.1 °
Period: 94.7 minutes
Semi major axis: 6881 km
RCS: Unknown
Launch date: January 7, 2020
Source: United States (US)
Launch site: AIR FORCE EASTERN TEST RANGE (AFETR)
Your satellite tracking list
Your tracking list is empty




NASA's NSSDC Master Catalog

Two Line Element Set (TLE):
1 44942U 20001AE  23159.35888555  .00007738  00000-0  35888-3 0  9993
2 44942  53.0532 141.5277 0001771 256.6477 103.4321 15.20983135188865
Source of the keplerian elements: AFSPC